Location: Cheching
(60.0667°N, 164.2167°W)
Time: 14:27:12
(UTC+00:00)

LilacSat-2 - Pass Details

Date: 22 January 2021
Orbit: 512 x 533 km, 97.5° (Epoch: 05 March)

Event Time Altitude Azimuth Distance (km) Brightness Sun altitude
Rises 04:17:21 0° 187° (S) 2,635 ? -10.8°
Reaches altitude 10° 04:19:34 10° 197° (SSW) 1,755 ? -11.1°
Maximum altitude 04:23:03 34° 264° (W) 876 ? -11.5°
Drops below altitude 10° 04:26:35 10° 331° (NNW) 1,780 ? -11.9°
Sets 04:28:51 0° 340° (NNW) 2,679 ? -12.1°
